(6) Hebe
(6) Hebe
Epoch 2008 Nov. 30.0 TT = JDT 2454800.5 MPC
M 174.99483 (2000.0) P Q
n 0.26102919 Peri. 239.49723 +0.93103972 -0.32397069
a 2.4248041 Node 138.73888 +0.35479996 +0.91127787
e 0.2022213 Incl. 14.75401 -0.08533479 +0.25419607
P 3.78 H 5.71 G 0.24 U 0
From 5011 observations at 81 oppositions, 1848-2008, mean residual 0".55.
An explanation of the orbital
elements is available.These orbital elements are also available in forms suitable for loading into a number of popular planetarium-type software programs.
Personalized ephemerides for this object (and others) can be generated using the MPES.
Date TT R. A. (2000) Decl. Delta r Elong. Phase V 2009 02 10 15 16.31 -02 36.1 2.669 2.905 93.8 19.8 11.0 2009 02 15 15 19.78 -02 19.6 2.598 2.903 97.9 19.7 11.0 2009 02 20 15 22.80 -01 59.9 2.529 2.901 102.0 19.5 10.9 2009 02 25 15 25.34 -01 37.0 2.461 2.899 106.3 19.1 10.8 2009 03 02 15 27.36 -01 11.1 2.394 2.897 110.7 18.7 10.8 2009 03 07 15 28.84 -00 42.3 2.330 2.894 115.1 18.1 10.7 2009 03 12 15 29.75 -00 10.9 2.268 2.891 119.6 17.4 10.6 2009 03 17 15 30.06 +00 22.9 2.209 2.888 124.2 16.6 10.5 2009 03 22 15 29.76 +00 58.8 2.154 2.885 128.8 15.6 10.4 2009 03 27 15 28.83 +01 36.3 2.103 2.882 133.4 14.6 10.3 2009 04 01 15 27.28 +02 14.8 2.056 2.878 138.0 13.4 10.3 2009 04 06 15 25.14 +02 53.7 2.015 2.874 142.5 12.2 10.2 2009 04 11 15 22.42 +03 32.2 1.979 2.871 146.8 11.0 10.1 2009 04 16 15 19.19 +04 09.5 1.949 2.867 150.7 9.9 10.0 2009 04 21 15 15.49 +04 44.9 1.925 2.862 154.1 8.8 9.9 2009 04 26 15 11.43 +05 17.4 1.907 2.858 156.4 8.1 9.9 2009 05 01 15 07.09 +05 46.3 1.896 2.853 157.6 7.7 9.9 2009 05 06 15 02.59 +06 10.8 1.892 2.849 157.2 7.9 9.9 2009 05 11 14 58.04 +06 30.3 1.894 2.844 155.4 8.5 9.9 2009 05 16 14 53.56 +06 44.4 1.903 2.839 152.6 9.4 9.9 2009 05 21 14 49.26 +06 52.9 1.918 2.834 149.0 10.6 10.0 2009 05 26 14 45.24 +06 55.5 1.939 2.828 144.9 11.9 10.0 2009 05 31 14 41.59 +06 52.4 1.965 2.823 140.6 13.2 10.1 2009 06 05 14 38.39 +06 43.8 1.997 2.817 136.1 14.5 10.2 2009 06 10 14 35.70 +06 29.9 2.033 2.811 131.6 15.7 10.3 2009 06 15 14 33.55 +06 11.2 2.073 2.805 127.1 16.8 10.3 2009 06 20 14 31.97 +05 48.2 2.117 2.799 122.7 17.8 10.4 2009 06 25 14 30.97 +05 21.1 2.164 2.793 118.3 18.7 10.5 2009 06 30 14 30.56 +04 50.5 2.214 2.786 114.0 19.5 10.5 2009 07 05 14 30.72 +04 16.8 2.266 2.780 109.8 20.1 10.6 2009 07 10 14 31.45 +03 40.5 2.319 2.773 105.7 20.7 10.7 2009 07 15 14 32.72 +03 02.0 2.374 2.766 101.7 21.1 10.7 2009 07 20 14 34.50 +02 21.6 2.430 2.759 97.8 21.4 10.8 2009 07 25 14 36.78 +01 39.6 2.487 2.751 94.0 21.6 10.8 2009 07 30 14 39.54 +00 56.3 2.544 2.744 90.3 21.7 10.9